Year,Month,Day,Hour,Minute,Value (Times are PST for temperature in C)
2013,06,28,00,00,15.40
2013,06,28,00,01,15.40
2013,06,28,00,02,15.30
2013,06,28,00,03,15.30
2013,06,28,00,04,15.30
2013,06,28,00,05,15.30
2013,06,28,00,06,15.30
2013,06,28,00,07,15.30
2013,06,28,00,08,15.30
2013,06,28,00,09,15.30
2013,06,28,00,10,15.30
2013,06,28,00,11,15.30
2013,06,28,00,12,15.20
2013,06,28,00,13,15.20
2013,06,28,00,14,15.20
2013,06,28,00,15,15.20
2013,06,28,00,16,15.20
2013,06,28,00,17,15.20
2013,06,28,00,18,15.20
2013,06,28,00,19,15.20
2013,06,28,00,20,15.20
2013,06,28,00,21,15.30
2013,06,28,00,22,15.30
2013,06,28,00,23,15.40
2013,06,28,00,24,15.40
2013,06,28,00,25,15.40
2013,06,28,00,26,15.40
2013,06,28,00,27,15.40
2013,06,28,00,28,15.40
2013,06,28,00,29,15.40
2013,06,28,00,30,15.40
2013,06,28,00,31,15.40
2013,06,28,00,32,15.40
2013,06,28,00,33,15.40
2013,06,28,00,34,15.30
2013,06,28,00,35,15.30
2013,06,28,00,36,15.30
2013,06,28,00,37,15.30
2013,06,28,00,38,15.30
2013,06,28,00,39,15.20
2013,06,28,00,40,15.20
2013,06,28,00,41,15.20
2013,06,28,00,42,15.20
2013,06,28,00,43,15.20
2013,06,28,00,44,15.20
2013,06,28,00,45,15.20
2013,06,28,00,46,15.20
2013,06,28,00,47,15.20
2013,06,28,00,48,15.20
2013,06,28,00,49,15.20
2013,06,28,00,50,15.20
2013,06,28,00,51,15.20
2013,06,28,00,52,15.20
2013,06,28,00,53,15.20
2013,06,28,00,54,15.20
2013,06,28,00,55,15.10
2013,06,28,00,56,15.10
2013,06,28,00,57,15.10
2013,06,28,00,58,15.10
2013,06,28,00,59,15.10
2013,06,28,01,00,15.10
2013,06,28,01,01,15.10
2013,06,28,01,02,15.20
2013,06,28,01,03,15.20
2013,06,28,01,04,15.20
2013,06,28,01,05,15.20
2013,06,28,01,06,15.20
2013,06,28,01,07,15.10
2013,06,28,01,08,15.10
2013,06,28,01,09,15.10
2013,06,28,01,10,15.10
2013,06,28,01,11,15.00
2013,06,28,01,12,15.00
2013,06,28,01,13,15.00
2013,06,28,01,14,14.90
2013,06,28,01,15,14.90
2013,06,28,01,16,14.90
2013,06,28,01,17,14.90
2013,06,28,01,18,14.90
2013,06,28,01,19,14.90
2013,06,28,01,20,14.90
2013,06,28,01,21,14.90
2013,06,28,01,22,14.90
2013,06,28,01,23,14.90
2013,06,28,01,24,14.90
2013,06,28,01,25,14.90
2013,06,28,01,26,14.90
2013,06,28,01,27,14.90
2013,06,28,01,28,14.90
2013,06,28,01,29,14.80
2013,06,28,01,30,14.80
2013,06,28,01,31,14.80
2013,06,28,01,32,14.80
2013,06,28,01,33,14.80
2013,06,28,01,34,14.80
2013,06,28,01,35,14.80
2013,06,28,01,36,14.80
2013,06,28,01,37,14.80
2013,06,28,01,38,14.80
2013,06,28,01,39,14.80
2013,06,28,01,40,14.80
2013,06,28,01,41,14.80
2013,06,28,01,42,14.80
2013,06,28,01,43,14.90
2013,06,28,01,44,14.90
2013,06,28,01,45,14.90
2013,06,28,01,46,14.90
2013,06,28,01,47,14.90
2013,06,28,01,48,14.90
2013,06,28,01,49,14.80
2013,06,28,01,50,14.80
2013,06,28,01,51,14.80
2013,06,28,01,52,14.80
2013,06,28,01,53,14.80
2013,06,28,01,54,14.80
2013,06,28,01,55,14.80
2013,06,28,01,56,14.80
2013,06,28,01,57,14.80
2013,06,28,01,58,14.80
2013,06,28,01,59,14.80
2013,06,28,02,00,14.80
2013,06,28,02,01,14.80
2013,06,28,02,02,14.80
2013,06,28,02,03,14.80
2013,06,28,02,04,14.90
2013,06,28,02,05,14.90
2013,06,28,02,06,14.80
2013,06,28,02,07,14.80
2013,06,28,02,08,14.80
2013,06,28,02,09,14.80
2013,06,28,02,10,14.80
2013,06,28,02,11,14.80
2013,06,28,02,12,14.80
2013,06,28,02,13,14.80
2013,06,28,02,14,14.80
2013,06,28,02,15,14.80
2013,06,28,02,16,14.90
2013,06,28,02,17,14.90
2013,06,28,02,18,14.80
2013,06,28,02,19,14.80
2013,06,28,02,20,14.80
2013,06,28,02,21,14.80
2013,06,28,02,22,14.80
2013,06,28,02,23,14.80
2013,06,28,02,24,14.80
2013,06,28,02,25,14.80
2013,06,28,02,26,14.80
2013,06,28,02,27,14.80
2013,06,28,02,28,14.70
2013,06,28,02,29,14.70
2013,06,28,02,30,14.70
2013,06,28,02,31,14.60
2013,06,28,02,32,14.60
2013,06,28,02,33,14.50
2013,06,28,02,34,14.50
2013,06,28,02,35,14.50
2013,06,28,02,36,14.50
2013,06,28,02,37,14.50
2013,06,28,02,38,14.50
2013,06,28,02,39,14.60
2013,06,28,02,40,14.60
2013,06,28,02,41,14.60
2013,06,28,02,42,14.60
2013,06,28,02,43,14.60
2013,06,28,02,44,14.60
2013,06,28,02,45,14.70
2013,06,28,02,46,14.70
2013,06,28,02,47,14.70
2013,06,28,02,48,14.70
2013,06,28,02,49,14.70
2013,06,28,02,50,14.70
2013,06,28,02,51,14.70
2013,06,28,02,52,14.70
2013,06,28,02,53,14.70
2013,06,28,02,54,14.70
2013,06,28,02,55,14.70
2013,06,28,02,56,14.70
2013,06,28,02,57,14.70
2013,06,28,02,58,14.70
2013,06,28,02,59,14.70
2013,06,28,03,00,14.70
2013,06,28,03,01,14.70
2013,06,28,03,02,14.80
2013,06,28,03,03,14.80
2013,06,28,03,04,14.80
2013,06,28,03,05,14.80
2013,06,28,03,06,14.80
2013,06,28,03,07,14.80
2013,06,28,03,08,14.70
2013,06,28,03,09,14.60
2013,06,28,03,10,14.60
2013,06,28,03,11,14.50
2013,06,28,03,12,14.50
2013,06,28,03,13,14.40
2013,06,28,03,14,14.40
2013,06,28,03,15,14.40
2013,06,28,03,16,14.40
2013,06,28,03,17,14.40
2013,06,28,03,18,14.40
2013,06,28,03,19,14.40
2013,06,28,03,20,14.40
2013,06,28,03,21,14.40
2013,06,28,03,22,14.40
2013,06,28,03,23,14.40
2013,06,28,03,24,14.40
2013,06,28,03,25,14.50
2013,06,28,03,26,14.50
2013,06,28,03,27,14.50
2013,06,28,03,28,14.50
2013,06,28,03,29,14.50
2013,06,28,03,30,14.50
2013,06,28,03,31,14.50
2013,06,28,03,32,14.60
2013,06,28,03,33,14.60
2013,06,28,03,34,14.60
2013,06,28,03,35,14.60
2013,06,28,03,36,14.60
2013,06,28,03,37,14.60
2013,06,28,03,38,14.60
2013,06,28,03,39,14.70
2013,06,28,03,40,14.70
2013,06,28,03,41,14.70
2013,06,28,03,42,14.70
2013,06,28,03,43,14.70
2013,06,28,03,44,14.60
2013,06,28,03,45,14.60
2013,06,28,03,46,14.60
2013,06,28,03,47,14.60
2013,06,28,03,48,14.60
2013,06,28,03,49,14.60
2013,06,28,03,50,14.70
2013,06,28,03,51,14.70
2013,06,28,03,52,14.70
2013,06,28,03,53,14.70
2013,06,28,03,54,14.70
2013,06,28,03,55,14.70
2013,06,28,03,56,14.70
2013,06,28,03,57,14.70
2013,06,28,03,58,14.70
2013,06,28,03,59,14.70
2013,06,28,04,00,14.70
2013,06,28,04,01,14.70
2013,06,28,04,02,14.70
2013,06,28,04,03,14.70
2013,06,28,04,04,14.70
2013,06,28,04,05,14.80
2013,06,28,04,06,14.80
2013,06,28,04,07,14.90
2013,06,28,04,08,15.00
2013,06,28,04,09,15.10
2013,06,28,04,10,15.20
2013,06,28,04,11,15.20
2013,06,28,04,12,15.30
2013,06,28,04,13,15.30
2013,06,28,04,14,15.40
2013,06,28,04,15,15.40
2013,06,28,04,16,15.40
2013,06,28,04,17,15.50
2013,06,28,04,18,15.50
2013,06,28,04,19,15.50
2013,06,28,04,20,15.60
2013,06,28,04,21,15.60
2013,06,28,04,22,15.60
2013,06,28,04,23,15.60
2013,06,28,04,24,15.60
2013,06,28,04,25,15.60
2013,06,28,04,26,15.60
2013,06,28,04,27,15.60
2013,06,28,04,28,15.60
2013,06,28,04,29,15.60
2013,06,28,04,30,15.60
2013,06,28,04,31,15.60
2013,06,28,04,32,15.60
2013,06,28,04,33,15.70
2013,06,28,04,34,15.70
2013,06,28,04,35,15.70
2013,06,28,04,36,15.70
2013,06,28,04,37,15.70
2013,06,28,04,38,15.70
2013,06,28,04,39,15.70
2013,06,28,04,40,15.70
2013,06,28,04,41,15.70
2013,06,28,04,42,15.70
2013,06,28,04,43,15.70
2013,06,28,04,44,15.70
2013,06,28,04,45,15.70
2013,06,28,04,46,15.70
2013,06,28,04,47,15.70
2013,06,28,04,48,15.70
2013,06,28,04,49,15.70
2013,06,28,04,50,15.70
2013,06,28,04,51,15.70
2013,06,28,04,52,15.70
2013,06,28,04,53,15.70
2013,06,28,04,54,15.60
2013,06,28,04,55,15.50
2013,06,28,04,56,15.50
2013,06,28,04,57,15.40
2013,06,28,04,58,15.30
2013,06,28,04,59,15.20
2013,06,28,05,00,15.20
2013,06,28,05,01,15.20
2013,06,28,05,02,15.20
2013,06,28,05,03,15.20
2013,06,28,05,04,15.20
2013,06,28,05,05,15.20
2013,06,28,05,06,15.20
2013,06,28,05,07,15.30
2013,06,28,05,08,15.30
2013,06,28,05,09,15.30
2013,06,28,05,10,15.40
2013,06,28,05,11,15.40
2013,06,28,05,12,15.40
2013,06,28,05,13,15.30
2013,06,28,05,14,15.30
2013,06,28,05,15,15.30
2013,06,28,05,16,15.30
2013,06,28,05,17,15.30
2013,06,28,05,18,15.30
2013,06,28,05,19,15.30
2013,06,28,05,20,15.20
2013,06,28,05,21,15.20
2013,06,28,05,22,15.20
2013,06,28,05,23,15.20
2013,06,28,05,24,15.20
2013,06,28,05,25,15.10
2013,06,28,05,26,15.10
2013,06,28,05,27,15.10
2013,06,28,05,28,15.10
2013,06,28,05,29,15.10
2013,06,28,05,30,15.10
2013,06,28,05,31,15.00
2013,06,28,05,32,15.00
2013,06,28,05,33,15.00
2013,06,28,05,34,14.90
2013,06,28,05,35,14.90
2013,06,28,05,36,14.80
2013,06,28,05,37,14.80
2013,06,28,05,38,14.80
2013,06,28,05,39,14.80
2013,06,28,05,40,14.90
2013,06,28,05,41,14.90
2013,06,28,05,42,14.90
2013,06,28,05,43,14.90
2013,06,28,05,44,14.90
2013,06,28,05,45,15.00
2013,06,28,05,46,15.00
2013,06,28,05,47,15.00
2013,06,28,05,48,15.00
2013,06,28,05,49,15.00
2013,06,28,05,50,15.00
2013,06,28,05,51,15.00
2013,06,28,05,52,15.00
2013,06,28,05,53,15.00
2013,06,28,05,54,15.00
2013,06,28,05,55,15.00
2013,06,28,05,56,15.00
2013,06,28,05,57,14.90
2013,06,28,05,58,14.90
2013,06,28,05,59,14.90
2013,06,28,06,00,15.00
2013,06,28,06,01,15.00
2013,06,28,06,02,15.00
2013,06,28,06,03,15.00
2013,06,28,06,04,15.00
2013,06,28,06,05,15.00
2013,06,28,06,06,15.00
2013,06,28,06,07,15.10
2013,06,28,06,08,15.00
2013,06,28,06,09,15.00
2013,06,28,06,10,15.00
2013,06,28,06,11,15.00
2013,06,28,06,12,15.10
2013,06,28,06,13,15.10
2013,06,28,06,14,15.10
2013,06,28,06,15,15.10
2013,06,28,06,16,15.10
2013,06,28,06,17,15.10
2013,06,28,06,18,15.10
2013,06,28,06,19,15.10
2013,06,28,06,20,15.20
2013,06,28,06,21,15.20
2013,06,28,06,22,15.10
2013,06,28,06,23,15.10
2013,06,28,06,24,15.10
2013,06,28,06,25,15.00
2013,06,28,06,26,15.00
2013,06,28,06,27,15.00
2013,06,28,06,28,15.00
2013,06,28,06,29,15.00
2013,06,28,06,30,15.00
2013,06,28,06,31,15.00
2013,06,28,06,32,15.10
2013,06,28,06,33,15.10
2013,06,28,06,34,15.10
2013,06,28,06,35,15.10
2013,06,28,06,36,15.10
2013,06,28,06,37,15.10
2013,06,28,06,38,15.10
2013,06,28,06,39,15.20
2013,06,28,06,40,15.20
2013,06,28,06,41,15.20
2013,06,28,06,42,15.20
2013,06,28,06,43,15.20
2013,06,28,06,44,15.20
2013,06,28,06,45,15.30
2013,06,28,06,46,15.30
2013,06,28,06,47,15.30
2013,06,28,06,48,15.40
2013,06,28,06,49,15.40
2013,06,28,06,50,15.50
2013,06,28,06,51,15.50
2013,06,28,06,52,15.60
2013,06,28,06,53,15.60
2013,06,28,06,54,15.60
2013,06,28,06,55,15.60
2013,06,28,06,56,15.70
2013,06,28,06,57,15.70
2013,06,28,06,58,15.70
2013,06,28,06,59,15.70
2013,06,28,07,00,15.70
2013,06,28,07,01,15.60
2013,06,28,07,02,15.60
2013,06,28,07,03,15.60
2013,06,28,07,04,15.60
2013,06,28,07,05,15.60
2013,06,28,07,06,15.60
2013,06,28,07,07,15.60
2013,06,28,07,08,15.60
2013,06,28,07,09,15.50
2013,06,28,07,10,15.50
2013,06,28,07,11,15.50
2013,06,28,07,12,15.50
2013,06,28,07,13,15.50
2013,06,28,07,14,15.60
2013,06,28,07,15,15.60
2013,06,28,07,16,15.60
2013,06,28,07,17,15.50
2013,06,28,07,18,15.40
2013,06,28,07,19,15.40
2013,06,28,07,20,15.40
2013,06,28,07,21,15.40
2013,06,28,07,22,15.40
2013,06,28,07,23,15.40
2013,06,28,07,24,15.40
2013,06,28,07,25,15.40
2013,06,28,07,26,15.40
2013,06,28,07,27,15.40
2013,06,28,07,28,15.40
2013,06,28,07,29,15.40
2013,06,28,07,30,15.50
2013,06,28,07,31,15.50
2013,06,28,07,32,15.50
2013,06,28,07,33,15.60
2013,06,28,07,34,15.70
2013,06,28,07,35,15.70
2013,06,28,07,36,15.80
2013,06,28,07,37,15.80
2013,06,28,07,38,15.90
2013,06,28,07,39,15.90
2013,06,28,07,40,16.00
2013,06,28,07,41,16.00
2013,06,28,07,42,16.10
2013,06,28,07,43,16.10
2013,06,28,07,44,16.10
2013,06,28,07,45,16.10
2013,06,28,07,46,16.20
2013,06,28,07,47,16.20
2013,06,28,07,48,16.20
2013,06,28,07,49,16.20
2013,06,28,07,50,16.20
2013,06,28,07,51,16.30
2013,06,28,07,52,16.30
2013,06,28,07,53,16.20
2013,06,28,07,54,16.20
2013,06,28,07,55,16.20
2013,06,28,07,56,16.10
2013,06,28,07,57,16.10
2013,06,28,07,58,16.00
2013,06,28,07,59,16.00
2013,06,28,08,00,15.90
2013,06,28,08,01,15.90
2013,06,28,08,02,16.00
2013,06,28,08,03,16.00
2013,06,28,08,04,16.10
2013,06,28,08,05,16.10
2013,06,28,08,06,16.20
2013,06,28,08,07,16.20
2013,06,28,08,08,16.20
2013,06,28,08,09,16.30
2013,06,28,08,10,16.30
2013,06,28,08,11,16.30
2013,06,28,08,12,16.40
2013,06,28,08,13,16.40
2013,06,28,08,14,16.40
2013,06,28,08,15,16.50
2013,06,28,08,16,16.50
2013,06,28,08,17,16.60
2013,06,28,08,18,16.60
2013,06,28,08,19,16.60
2013,06,28,08,20,16.60
2013,06,28,08,21,16.60
2013,06,28,08,22,16.70
2013,06,28,08,23,16.70
2013,06,28,08,24,16.70
2013,06,28,08,25,16.70
2013,06,28,08,26,16.80
2013,06,28,08,27,16.80
2013,06,28,08,28,16.80
2013,06,28,08,29,16.80
2013,06,28,08,30,16.80
2013,06,28,08,31,16.80
2013,06,28,08,32,16.90
2013,06,28,08,33,16.90
2013,06,28,08,34,16.90
2013,06,28,08,35,16.90
2013,06,28,08,36,16.90
2013,06,28,08,37,16.90
2013,06,28,08,38,16.90
2013,06,28,08,39,16.90
2013,06,28,08,40,16.90
2013,06,28,08,41,16.90
2013,06,28,08,42,17.00
2013,06,28,08,43,17.00
2013,06,28,08,44,17.00
2013,06,28,08,45,17.00
2013,06,28,08,46,17.10
2013,06,28,08,47,17.10
2013,06,28,08,48,17.10
2013,06,28,08,49,17.10
2013,06,28,08,50,17.10
2013,06,28,08,51,17.10
2013,06,28,08,52,17.10
2013,06,28,08,53,17.10
2013,06,28,08,54,17.10
2013,06,28,08,55,17.10
2013,06,28,08,56,17.10
2013,06,28,08,57,17.10
2013,06,28,08,58,17.10
2013,06,28,08,59,17.10
2013,06,28,09,00,17.10
2013,06,28,09,01,17.10
2013,06,28,09,02,17.10
2013,06,28,09,03,17.10
2013,06,28,09,04,17.10
2013,06,28,09,05,17.10
2013,06,28,09,06,17.10
2013,06,28,09,07,17.10
2013,06,28,09,08,17.10
2013,06,28,09,09,17.10
2013,06,28,09,10,17.10
2013,06,28,09,11,17.10
2013,06,28,09,12,17.10
2013,06,28,09,13,17.10
2013,06,28,09,14,17.10
2013,06,28,09,15,17.10
2013,06,28,09,16,17.10
2013,06,28,09,17,17.10
2013,06,28,09,18,17.10
2013,06,28,09,19,17.10
2013,06,28,09,20,17.10
2013,06,28,09,21,17.10
2013,06,28,09,22,17.10
2013,06,28,09,23,17.10
2013,06,28,09,24,17.10
2013,06,28,09,25,17.10
2013,06,28,09,26,17.10
2013,06,28,09,27,17.10
2013,06,28,09,28,17.10
2013,06,28,09,29,17.10
2013,06,28,09,30,17.10
2013,06,28,09,31,17.10
2013,06,28,09,32,17.10
2013,06,28,09,33,17.10
2013,06,28,09,34,17.10
2013,06,28,09,35,17.00
2013,06,28,09,36,17.00
2013,06,28,09,37,17.00
2013,06,28,09,38,17.00
2013,06,28,09,39,17.00
2013,06,28,09,40,17.00
2013,06,28,09,41,16.90
2013,06,28,09,42,16.90
2013,06,28,09,43,16.90
2013,06,28,09,44,16.90
2013,06,28,09,45,16.90
2013,06,28,09,46,16.90
2013,06,28,09,47,16.90
2013,06,28,09,48,16.90
2013,06,28,09,49,16.90
2013,06,28,09,50,16.90
2013,06,28,09,51,16.90
2013,06,28,09,52,16.90
2013,06,28,09,53,16.90
2013,06,28,09,54,16.90
2013,06,28,09,55,16.90
2013,06,28,09,56,16.80
2013,06,28,09,57,16.80
2013,06,28,09,58,16.80
2013,06,28,09,59,16.80
2013,06,28,10,00,16.80
2013,06,28,10,01,16.80
2013,06,28,10,02,16.80
2013,06,28,10,03,16.80
2013,06,28,10,04,16.80
2013,06,28,10,05,16.80
2013,06,28,10,06,16.80
2013,06,28,10,07,16.80
2013,06,28,10,08,16.80
2013,06,28,10,09,16.80
2013,06,28,10,10,16.80
2013,06,28,10,11,16.80
2013,06,28,10,12,16.80
2013,06,28,10,13,16.80
2013,06,28,10,14,16.90
2013,06,28,10,15,16.90
2013,06,28,10,16,16.90
2013,06,28,10,17,16.90
2013,06,28,10,18,16.90
2013,06,28,10,19,16.80
2013,06,28,10,20,16.80
2013,06,28,10,21,16.80
2013,06,28,10,22,16.80
2013,06,28,10,23,16.80
2013,06,28,10,24,16.80
2013,06,28,10,25,16.80
2013,06,28,10,26,16.80
2013,06,28,10,27,16.80
2013,06,28,10,28,16.80
2013,06,28,10,29,16.80
2013,06,28,10,30,16.80
2013,06,28,10,31,16.70
2013,06,28,10,32,16.70
2013,06,28,10,33,16.70
2013,06,28,10,34,16.70
2013,06,28,10,35,16.70
2013,06,28,10,36,16.70
2013,06,28,10,37,16.70
2013,06,28,10,38,16.60
2013,06,28,10,39,16.60
2013,06,28,10,40,16.60
2013,06,28,10,41,16.60
2013,06,28,10,42,16.60
2013,06,28,10,43,16.60
2013,06,28,10,44,16.60
2013,06,28,10,45,16.70
2013,06,28,10,46,16.70
2013,06,28,10,47,16.70
2013,06,28,10,48,16.70
2013,06,28,10,49,16.70
2013,06,28,10,50,16.70
2013,06,28,10,51,16.70
2013,06,28,10,52,16.70
2013,06,28,10,53,16.70
2013,06,28,10,54,16.70
2013,06,28,10,55,16.70
2013,06,28,10,56,16.70
2013,06,28,10,57,16.80
2013,06,28,10,58,16.80
2013,06,28,10,59,16.80
2013,06,28,11,00,16.80
2013,06,28,11,01,16.80
2013,06,28,11,02,16.80
2013,06,28,11,03,16.80
2013,06,28,11,04,16.80
2013,06,28,11,05,16.80
2013,06,28,11,06,16.80
2013,06,28,11,07,16.70
2013,06,28,11,08,16.70
2013,06,28,11,09,16.70
2013,06,28,11,10,16.70
2013,06,28,11,11,16.70
2013,06,28,11,12,16.70
2013,06,28,11,13,16.70
2013,06,28,11,14,16.70
2013,06,28,11,15,16.80
2013,06,28,11,16,16.80
2013,06,28,11,17,16.80
2013,06,28,11,18,16.80
2013,06,28,11,19,16.80
2013,06,28,11,20,16.80
2013,06,28,11,21,16.80
2013,06,28,11,22,16.80
2013,06,28,11,23,16.80
2013,06,28,11,24,16.80
2013,06,28,11,25,16.80
2013,06,28,11,26,16.90
2013,06,28,11,27,16.90
2013,06,28,11,28,16.90
2013,06,28,11,29,16.80
2013,06,28,11,30,16.80
2013,06,28,11,31,16.80
2013,06,28,11,32,16.80
2013,06,28,11,33,16.80
2013,06,28,11,34,16.80
2013,06,28,11,35,16.80
2013,06,28,11,36,16.80
2013,06,28,11,37,16.80
2013,06,28,11,38,16.80
2013,06,28,11,39,16.80
2013,06,28,11,40,16.80
2013,06,28,11,41,16.80
2013,06,28,11,42,16.80
2013,06,28,11,43,16.90
2013,06,28,11,44,16.90
2013,06,28,11,45,16.90
2013,06,28,11,46,16.90
2013,06,28,11,47,17.00
2013,06,28,11,48,17.00
2013,06,28,11,49,17.10
2013,06,28,11,50,17.10
2013,06,28,11,51,17.10
2013,06,28,11,52,17.10
2013,06,28,11,53,17.20
2013,06,28,11,54,17.20
2013,06,28,11,55,17.30
2013,06,28,11,56,17.30
2013,06,28,11,57,17.30
2013,06,28,11,58,17.30
2013,06,28,11,59,17.40
2013,06,28,12,00,17.40
2013,06,28,12,01,17.50
2013,06,28,12,02,17.50
2013,06,28,12,03,17.60
2013,06,28,12,04,17.60
2013,06,28,12,05,17.60
2013,06,28,12,06,17.70
2013,06,28,12,07,17.70
2013,06,28,12,08,17.80
2013,06,28,12,09,17.80
2013,06,28,12,10,17.80
2013,06,28,12,11,17.90
2013,06,28,12,12,18.00
2013,06,28,12,13,18.00
2013,06,28,12,14,18.10
2013,06,28,12,15,18.10
2013,06,28,12,16,18.10
2013,06,28,12,17,18.20
2013,06,28,12,18,18.20
2013,06,28,12,19,18.20
2013,06,28,12,20,18.30
2013,06,28,12,21,18.30
2013,06,28,12,22,18.30
2013,06,28,12,23,18.40
2013,06,28,12,24,18.40
2013,06,28,12,25,18.40
2013,06,28,12,26,18.40
2013,06,28,12,27,18.40
2013,06,28,12,28,18.30
2013,06,28,12,29,18.30
2013,06,28,12,30,18.30
2013,06,28,12,31,18.30
2013,06,28,12,32,18.30
2013,06,28,12,33,18.30
2013,06,28,12,34,18.30
2013,06,28,12,35,18.30
2013,06,28,12,36,18.40
2013,06,28,12,37,18.40
2013,06,28,12,38,18.40
2013,06,28,12,39,18.40
2013,06,28,12,40,18.40
2013,06,28,12,41,18.40
2013,06,28,12,42,18.40
2013,06,28,12,43,18.40
2013,06,28,12,44,18.40
2013,06,28,12,45,18.40
2013,06,28,12,46,18.40
2013,06,28,12,47,18.40
2013,06,28,12,48,18.40
2013,06,28,12,49,18.50
2013,06,28,12,50,18.50
2013,06,28,12,51,18.50
2013,06,28,12,52,18.50
2013,06,28,12,53,18.60
2013,06,28,12,54,18.60
2013,06,28,12,55,18.60
2013,06,28,12,56,18.60
2013,06,28,12,57,18.60
2013,06,28,12,58,18.70
2013,06,28,12,59,18.70
2013,06,28,13,00,18.70
2013,06,28,13,01,18.80
2013,06,28,13,02,18.80
2013,06,28,13,03,18.80
2013,06,28,13,04,18.90
2013,06,28,13,05,18.90
2013,06,28,13,06,18.90
2013,06,28,13,07,19.00
2013,06,28,13,08,19.00
2013,06,28,13,09,19.00
2013,06,28,13,10,19.00
2013,06,28,13,11,19.00
2013,06,28,13,12,19.00
2013,06,28,13,13,19.00
2013,06,28,13,14,19.00
2013,06,28,13,15,19.00
2013,06,28,13,16,19.00
2013,06,28,13,17,19.00
2013,06,28,13,18,19.00
2013,06,28,13,19,19.10
2013,06,28,13,20,19.10
2013,06,28,13,21,19.10
2013,06,28,13,22,19.10
2013,06,28,13,23,19.10
2013,06,28,13,24,19.10
2013,06,28,13,25,19.10
2013,06,28,13,26,19.20
2013,06,28,13,27,19.10
2013,06,28,13,28,19.10
2013,06,28,13,29,19.00
2013,06,28,13,30,19.00
2013,06,28,13,31,18.90
2013,06,28,13,32,18.80
2013,06,28,13,33,18.80
2013,06,28,13,34,18.70
2013,06,28,13,35,18.70
2013,06,28,13,36,18.70
2013,06,28,13,37,18.60
2013,06,28,13,38,18.50
2013,06,28,13,39,18.50
2013,06,28,13,40,18.40
2013,06,28,13,41,18.40
2013,06,28,13,42,18.30
2013,06,28,13,43,18.30
2013,06,28,13,44,18.30
2013,06,28,13,45,18.30
2013,06,28,13,46,18.40
2013,06,28,13,47,18.40
2013,06,28,13,48,18.50
2013,06,28,13,49,18.60
2013,06,28,13,50,18.60
2013,06,28,13,51,18.70
2013,06,28,13,52,18.70
2013,06,28,13,53,18.70
2013,06,28,13,54,18.60
2013,06,28,13,55,18.60
2013,06,28,13,56,18.60
2013,06,28,13,57,18.60
2013,06,28,13,58,18.60
2013,06,28,13,59,18.60
2013,06,28,14,00,18.60
2013,06,28,14,01,18.60
2013,06,28,14,02,18.60
2013,06,28,14,03,18.60
2013,06,28,14,04,18.60
2013,06,28,14,05,18.60
2013,06,28,14,06,18.60
2013,06,28,14,07,18.60
2013,06,28,14,08,18.60
2013,06,28,14,09,18.60
2013,06,28,14,10,18.60
2013,06,28,14,11,18.70
2013,06,28,14,12,18.70
2013,06,28,14,13,18.60
2013,06,28,14,14,18.60
2013,06,28,14,15,18.60
2013,06,28,14,16,18.70
2013,06,28,14,17,18.70
2013,06,28,14,18,18.70
2013,06,28,14,19,18.70
2013,06,28,14,20,18.70
2013,06,28,14,21,18.70
2013,06,28,14,22,18.70
2013,06,28,14,23,18.80
2013,06,28,14,24,18.80
2013,06,28,14,25,18.80
2013,06,28,14,26,18.80
2013,06,28,14,27,18.70
2013,06,28,14,28,18.70
2013,06,28,14,29,18.60
2013,06,28,14,30,18.50
2013,06,28,14,31,18.40
2013,06,28,14,32,18.20
2013,06,28,14,33,18.10
2013,06,28,14,34,18.10
2013,06,28,14,35,18.00
2013,06,28,14,36,17.90
2013,06,28,14,37,17.90
2013,06,28,14,38,17.80
2013,06,28,14,39,17.80
2013,06,28,14,40,17.80
2013,06,28,14,41,17.80
2013,06,28,14,42,17.80
2013,06,28,14,43,17.80
2013,06,28,14,44,17.80
2013,06,28,14,45,17.80
2013,06,28,14,46,17.90
2013,06,28,14,47,17.90
2013,06,28,14,48,17.90
2013,06,28,14,49,17.90
2013,06,28,14,50,17.90
2013,06,28,14,51,17.80
2013,06,28,14,52,17.80
2013,06,28,14,53,17.80
2013,06,28,14,54,17.80
2013,06,28,14,55,17.80
2013,06,28,14,56,17.80
2013,06,28,14,57,17.80
2013,06,28,14,58,17.70
2013,06,28,14,59,17.60
2013,06,28,15,00,17.50
2013,06,28,15,01,17.50
2013,06,28,15,02,17.40
2013,06,28,15,03,17.30
2013,06,28,15,04,17.30
2013,06,28,15,05,17.20
2013,06,28,15,06,17.20
2013,06,28,15,07,17.20
2013,06,28,15,08,17.20
2013,06,28,15,09,17.20
2013,06,28,15,10,17.20
2013,06,28,15,11,17.20
2013,06,28,15,12,17.20
2013,06,28,15,13,17.20
2013,06,28,15,14,17.20
2013,06,28,15,15,17.30
2013,06,28,15,16,17.30
2013,06,28,15,17,17.30
2013,06,28,15,18,17.30
2013,06,28,15,19,17.30
2013,06,28,15,20,17.40
2013,06,28,15,21,17.40
2013,06,28,15,22,17.40
2013,06,28,15,23,17.40
2013,06,28,15,24,17.40
2013,06,28,15,25,17.40
2013,06,28,15,26,17.40
2013,06,28,15,27,17.40
2013,06,28,15,28,17.40
2013,06,28,15,29,17.40
2013,06,28,15,30,17.40
2013,06,28,15,31,17.40
2013,06,28,15,32,17.40
2013,06,28,15,33,17.50
2013,06,28,15,34,17.50
2013,06,28,15,35,17.50
2013,06,28,15,36,17.60
2013,06,28,15,37,17.70
2013,06,28,15,38,17.70
2013,06,28,15,39,17.80
2013,06,28,15,40,17.80
2013,06,28,15,41,17.90
2013,06,28,15,42,18.00
2013,06,28,15,43,18.00
2013,06,28,15,44,18.10
2013,06,28,15,45,18.10
2013,06,28,15,46,18.10
2013,06,28,15,47,18.10
2013,06,28,15,48,18.10
2013,06,28,15,49,18.10
2013,06,28,15,50,18.10
2013,06,28,15,51,18.20
2013,06,28,15,52,18.20
2013,06,28,15,53,18.20
2013,06,28,15,54,18.20
2013,06,28,15,55,18.20
2013,06,28,15,56,18.20
2013,06,28,15,57,18.20
2013,06,28,15,58,18.20
2013,06,28,15,59,18.30
2013,06,28,16,00,18.30
2013,06,28,16,01,18.30
2013,06,28,16,02,18.20
2013,06,28,16,03,18.20
2013,06,28,16,04,18.20
2013,06,28,16,05,18.20
2013,06,28,16,06,18.20
2013,06,28,16,07,18.20
2013,06,28,16,08,18.20
2013,06,28,16,09,18.10
2013,06,28,16,10,18.10
2013,06,28,16,11,18.10
2013,06,28,16,12,18.00
2013,06,28,16,13,18.00
2013,06,28,16,14,17.90
2013,06,28,16,15,17.90
2013,06,28,16,16,17.80
2013,06,28,16,17,17.80
2013,06,28,16,18,17.80
2013,06,28,16,19,17.70
2013,06,28,16,20,17.70
2013,06,28,16,21,17.60
2013,06,28,16,22,17.60
2013,06,28,16,23,17.60
2013,06,28,16,24,17.60
2013,06,28,16,25,17.60
2013,06,28,16,26,17.70
2013,06,28,16,27,17.70
2013,06,28,16,28,17.70
2013,06,28,16,29,17.80
2013,06,28,16,30,17.80
2013,06,28,16,31,17.90
2013,06,28,16,32,17.90
2013,06,28,16,33,17.90
2013,06,28,16,34,18.00
2013,06,28,16,35,18.00
2013,06,28,16,36,18.00
2013,06,28,16,37,18.00
2013,06,28,16,38,18.10
2013,06,28,16,39,18.10
2013,06,28,16,40,18.10
2013,06,28,16,41,18.10
2013,06,28,16,42,18.10
2013,06,28,16,43,18.10
2013,06,28,16,44,18.20
2013,06,28,16,45,18.20
2013,06,28,16,46,18.20
2013,06,28,16,47,18.20
2013,06,28,16,48,18.20
2013,06,28,16,49,18.20
2013,06,28,16,50,18.30
2013,06,28,16,51,18.30
2013,06,28,16,52,18.40
2013,06,28,16,53,18.40
2013,06,28,16,54,18.50
2013,06,28,16,55,18.60
2013,06,28,16,56,18.70
2013,06,28,16,57,18.70
2013,06,28,16,58,18.80
2013,06,28,16,59,18.80
2013,06,28,17,00,18.80
2013,06,28,17,01,18.90
2013,06,28,17,02,18.90
2013,06,28,17,03,19.00
2013,06,28,17,04,19.10
2013,06,28,17,05,19.20
2013,06,28,17,06,19.20
2013,06,28,17,07,19.20
2013,06,28,17,08,19.30
2013,06,28,17,09,19.30
2013,06,28,17,10,19.30
2013,06,28,17,11,19.30
2013,06,28,17,12,19.20
2013,06,28,17,13,19.10
2013,06,28,17,14,19.00
2013,06,28,17,15,18.90
2013,06,28,17,16,18.80
2013,06,28,17,17,18.80
2013,06,28,17,18,18.70
2013,06,28,17,19,18.70